[[{"header":{"parameterUnit":"m.s-1","parameterCategory":1,"la1":30.2991,"la2":30.254,"lo1":-89.0895,"lo2":-89.0444,"dy":0.0017,"dx":0.0017,"nx":28,"ny":28,"refTime":"2025-01-15T09:00:00:Z","depth":0,"parameterNumber":2,"parameterNumberName":"U-component_of_WINDS"},"data":[0,0,0,0,0,0,0,0,0,0,0,0,0,0,0,0,0,0,0,0,0,0,0,0,0,0,0,0,0,0,0,0,0,0,0,0,0,0,0,0,0,0,0,0,0,0,0,0,0,0,0,0,0,0,0,0,0,0,-2.4245,-2.4246,0,-2.4324,-2.4325,-2.4326,-2.4227,-2.4223,-2.4219,-2.4216,-2.4304,-2.4309,-2.4315,0,0,0,0,0,0,0,0,0,0,0,0,0,-2.4017,-2.4022,-2.4245,-2.4246,-2.4247,-2.4324,-2.4325,-2.4326,-2.4227,-2.4223,-2.4218,-2.4214,-2.4302,-2.4308,-2.4315,0,0,0,0,0,0,0,0,0,0,0,0,0,-2.4108,-2.4023,-2.4245,-2.4207,-2.4204,-2.4323,-2.4325,-2.4326,-2.4228,-2.4223,-2.4217,-2.4212,-2.4299,-2.4308,-2.4316,-2.4479,0,0,-2.4343,-2.4346,0,0,0,0,0,0,0,0,-2.4103,-2.4117,-2.4212,-2.421,-2.4207,-2.426,-2.4276,-2.4378,-2.423,-2.4219,-2.4216,-2.4209,-2.4294,-2.4303,-2.433,-2.4483,-2.4486,-2.4343,-2.4349,-2.4352,-2.4355,0,0,0,0,0,0,0,-2.4097,-2.4113,-2.4277,-2.4213,-2.4211,-2.4188,-2.4195,-2.4295,-2.4287,-2.422,-2.4213,-2.4223,-2.4292,-2.4321,-2.4331,-2.4488,-2.4343,-2.4351,-2.4356,-2.4359,-2.478,-2.4786,0,0,0,0,0,0,-2.4094,-2.4108,-2.4274,-2.4279,-2.414,-2.4197,-2.4205,-2.4248,-2.4285,-2.4285,-2.4228,-2.4218,-2.4309,-2.4321,-2.4334,-2.4528,-2.4352,-2.436,-2.4365,-2.4774,-2.4782,-2.4788,0,0,0,0,0,0,-2.409,-2.411,-2.4271,-2.4192,-2.421,-2.4207,-2.4257,-2.4253,-2.4282,-2.4291,-2.429,-2.4259,-2.4306,-2.4321,-2.4443,-2.453,-2.4364,-2.4372,-2.4767,-2.4777,-2.4785,-2.4917,0,0,0,0,0,0,-2.4084,-2.4109,-2.4169,-2.4194,-2.4215,-2.4378,-2.4262,-2.4258,-2.4297,-2.4285,-2.432,-2.4321,-2.4303,-2.4431,-2.4452,-2.4538,-2.4379,-2.476,-2.4771,-2.4782,-2.4905,-2.4929,-2.495,0,0,0,0,0,-2.4076,-2.4204,-2.4173,-2.4193,-2.429,-2.4383,-2.4395,-2.4369,-2.4304,-2.4366,-2.4371,-2.432,-2.4516,-2.4444,-2.4467,-2.4557,-2.4754,-2.4768,-2.4781,-2.4895,-2.4925,-2.495,0,0,0,0,0,0,-2.4193,-2.4207,-2.4172,-2.4312,-2.4346,-2.4366,-2.4443,-2.4401,-2.4457,-2.4445,-2.4412,-2.4421,-2.4551,-2.4566,-2.4486,-2.4717,-2.4625,-2.4643,-2.4703,-2.4732,-2.4754,-2.4749,-2.4386,0,0,0,0,0,-2.4234,-2.4306,-2.4315,-2.4438,-2.4457,-2.4447,-2.4487,-2.4463,-2.4499,-2.4514,-2.4528,-2.4567,-2.4637,-2.4685,-2.475,-2.4905,-2.4914,-2.4979,-2.5002,-2.502,-2.5038,-2.5124,-2.5154,-2.4833,-2.4833,-2.4832,0,0,-2.4322,-2.4338,-2.4386,-2.4462,-2.4486,-2.4564,-2.446,-2.4547,-2.4605,-2.4528,-2.4644,-2.4656,-2.4697,-2.4837,-2.4899,-2.4853,-2.5128,-2.5037,-2.5052,-2.506,-2.5141,-2.5171,-2.5198,-2.4842,-2.484,-2.4839,0,0,-2.4522,-2.454,-2.4645,-2.4671,-2.4708,-2.47,-2.4726,-2.4751,-2.4756,-2.4871,-2.4815,-2.4885,-2.5006,-2.5038,-2.507,-2.5282,-2.5238,-2.5304,-2.5424,-2.5508,-2.5533,-2.5556,-2.5634,-2.5662,-2.5321,-2.5321,-2.5322,0,-2.4627,-2.4739,-2.4705,-2.4796,-2.4832,-2.4762,-2.487,-2.4898,-2.4956,-2.4983,-2.493,-2.5081,-2.5104,-2.5251,-2.5303,-2.533,-2.5361,-2.5302,-2.5532,-2.5554,-2.5575,-2.5649,-2.5678,-2.5329,-2.5328,-2.5328,-2.5327,0,-2.4868,-2.4948,-2.5028,-2.5083,-2.5128,-2.5227,-2.521,-2.526,-2.5233,-2.5232,-2.5351,-2.5375,-2.5445,-2.5477,-2.5452,-2.5622,-2.5593,-2.5536,-2.5443,-2.5614,-2.5683,-2.5711,-2.5341,-2.5338,-2.5336,-2.5334,0,0,-2.5147,-2.518,-2.5211,-2.5236,-2.5271,-2.5333,-2.5429,-2.5495,-2.554,-2.5581,-2.5664,-2.5767,-2.5715,-2.5752,-2.573,-2.5803,-2.5973,-2.5738,-2.5738,-2.5783,-2.6165,-2.621,-2.6243,-2.5942,-2.5947,-2.5952,-2.6162,0,-2.5349,-2.5513,-2.5485,-2.5646,-2.572,-2.5655,-2.5739,-2.5772,-2.5773,-2.5838,-2.584,-2.5916,-2.5839,-2.5862,-2.5931,-2.5938,-2.605,-2.5921,-2.6022,-2.6026,-2.6017,-2.6279,-2.6326,-2.6524,-2.6189,-2.6194,-2.6197,0,-2.5607,-2.5656,-2.5825,-2.5849,-2.5879,-2.5955,-2.6014,-2.6075,-2.6112,-2.6107,-2.6148,-2.6113,-2.6212,-2.6114,-2.6252,-2.6165,-2.6204,-2.6214,-2.6221,-2.6232,-2.6124,-2.63,-2.6586,-2.6617,-2.6239,-2.6236,-2.6233,0,-2.5797,-2.5905,-2.602,-2.6043,-2.6074,-2.6129,-2.6145,-2.6175,-2.6217,-2.6268,-2.6296,-2.6359,-2.6395,-2.6446,-2.6429,-2.6359,-2.6572,-2.6472,-2.6574,-2.6575,-2.6625,-2.6622,-2.6924,-2.6645,-2.6644,-2.6644,-2.6643,0,-2.6027,-2.6134,-2.6106,-2.6177,-2.6295,-2.6262,-2.638,-2.6388,-2.6415,-2.6489,-2.6436,-2.6507,-2.6479,-2.6549,-2.6536,-2.6654,-2.667,-2.6672,-2.6668,-2.6678,-2.6679,-2.6706,-2.6693,-2.6651,-2.665,-2.6648,-2.6647,0,-2.6261,-2.6246,-2.6367,-2.6386,-2.6393,-2.6479,-2.6496,-2.6564,-2.656,-2.6654,-2.6674,-2.667,-2.6749,-2.6736,-2.6825,-2.6816,-2.6964,-2.6942,-2.6952,-2.6948,-2.7052,-2.7044,-2.7385,-2.7429,-2.7118,-2.7121,-2.7123,0,-2.6411,-2.6491,-2.6517,-2.6561,-2.658,-2.6653,-2.6694,-2.6665,-2.6711,-2.6758,-2.6821,-2.6895,-2.6953,-2.7083,-2.709,-2.7157,-2.7138,-2.7253,-2.7149,-2.7157,-2.7144,-2.7141,-2.715,-2.7275,-2.7279,-2.7282,-2.7284,0,-2.6679,-2.6668,-2.6728,-2.6788,-2.6838,-2.6884,-2.6924,-2.6964,-2.6938,-2.6993,-2.7072,-2.7117,-2.7206,-2.7282,-2.7345,-2.7364,-2.7322,-2.7316,-2.7344,-2.7358,-2.7361,-2.7364,-2.7012,-2.7309,-2.7307,-2.7305,-2.7304,-2.7303,-2.6878,-2.6946,-2.6975,-2.7046,-2.7072,-2.7111,-2.7176,-2.718,-2.7245,-2.7314,-2.7292,-2.7384,-2.7419,-2.7499,-2.7525,-2.7597,-2.7555,-2.7595,-2.7605,-2.7617,-2.763,-2.7346,-2.7608,-2.7607,-2.7607,-2.7606,-2.7606,0,-2.7146,-2.7161,-2.7225,-2.7283,-2.7339,-2.7289,-2.7332,-2.7383,-2.7463,-2.7498,-2.7555,-2.7647,-2.772,-2.7731,-2.7801,-2.7857,-2.784,-2.7877,-2.7874,-2.788,-2.7662,-2.7633,-2.789,-2.789,-2.789,-2.789,-2.789,-2.789,-2.7293,-2.7407,-2.7399,-2.7527,-2.7541,-2.7628,-2.7657,-2.7694,-2.7721,-2.7826,-2.7885,-2.7891,-2.7917,-2.7988,-2.8054,-2.8055,-2.8085,-2.8131,-2.8126,-2.7923,-2.7895,-2.7868,-2.784,-2.8137,-2.8137,-2.8338,-2.8339,-2.8341]},{"header":{"parameterUnit":"m.s-1","parameterCategory":1,"la1":30.2991,"la2":30.254,"lo1":-89.0895,"lo2":-89.0444,"dy":0.0017,"dx":0.0017,"nx":28,"ny":28,"refTime":"2025-01-15T09:00:00:Z","depth":0,"parameterNumber":3,"parameterNumberName":"V-component_of_WINDS"},"data":[0,0,0,0,0,0,0,0,0,0,0,0,0,0,0,0,0,0,0,0,0,0,0,0,0,0,0,0,0,0,0,0,0,0,0,0,0,0,0,0,0,0,0,0,0,0,0,0,0,0,0,0,0,0,0,0,0,0,-3.2297,-3.2297,0,-3.2281,-3.2281,-3.228,-3.222,-3.2219,-3.2217,-3.2216,-3.22,-3.2201,-3.2202,0,0,0,0,0,0,0,0,0,0,0,0,0,-3.2278,-3.2278,-3.2297,-3.2297,-3.2297,-3.2281,-3.2281,-3.228,-3.222,-3.2219,-3.2217,-3.2216,-3.22,-3.2201,-3.2202,0,0,0,0,0,0,0,0,0,0,0,0,0,-3.2276,-3.2279,-3.2297,-3.2265,-3.2262,-3.2281,-3.228,-3.228,-3.2221,-3.2219,-3.2217,-3.2215,-3.2199,-3.2201,-3.2202,-3.2251,0,0,-3.2206,-3.2206,0,0,0,0,0,0,0,0,-3.2276,-3.2277,-3.227,-3.2267,-3.2264,-3.225,-3.2268,-3.227,-3.2221,-3.2237,-3.2216,-3.2214,-3.2219,-3.2218,-3.2219,-3.225,-3.2249,-3.2206,-3.2207,-3.2207,-3.2208,0,0,0,0,0,0,0,-3.2277,-3.2277,-3.2291,-3.227,-3.2266,-3.2252,-3.2249,-3.2268,-3.2239,-3.2235,-3.2231,-3.2229,-3.2216,-3.2218,-3.2219,-3.2249,-3.2206,-3.2207,-3.2208,-3.2208,-3.2318,-3.232,0,0,0,0,0,0,-3.2281,-3.2278,-3.2291,-3.229,-3.2265,-3.2254,-3.2251,-3.2257,-3.2239,-3.2234,-3.2231,-3.2227,-3.2217,-3.2217,-3.2218,-3.2273,-3.2207,-3.2208,-3.2209,-3.2316,-3.2318,-3.232,0,0,0,0,0,0,-3.2281,-3.2283,-3.2292,-3.2283,-3.2283,-3.2256,-3.2263,-3.2258,-3.2259,-3.2236,-3.2231,-3.2238,-3.2216,-3.2216,-3.2243,-3.2272,-3.2209,-3.221,-3.2313,-3.2316,-3.2319,-3.2385,0,0,0,0,0,0,-3.2281,-3.2283,-3.2302,-3.2284,-3.2284,-3.2317,-3.2265,-3.2259,-3.2262,-3.2256,-3.2241,-3.2237,-3.2214,-3.2241,-3.2244,-3.2272,-3.2211,-3.231,-3.2314,-3.2318,-3.238,-3.239,-3.2398,0,0,0,0,0,-3.228,-3.2321,-3.2303,-3.2305,-3.2306,-3.2319,-3.2319,-3.2292,-3.2264,-3.2282,-3.2267,-3.2237,-3.2268,-3.2244,-3.2247,-3.2276,-3.2308,-3.2313,-3.2318,-3.2376,-3.2388,-3.2398,0,0,0,0,0,0,-3.2344,-3.2318,-3.2298,-3.2334,-3.2329,-3.2309,-3.2331,-3.2305,-3.2308,-3.2303,-3.2269,-3.2266,-3.2297,-3.2289,-3.2263,-3.2322,-3.2283,-3.2289,-3.2326,-3.2337,-3.2346,-3.2348,-3.2212,0,0,0,0,0,-3.2362,-3.2374,-3.2352,-3.2386,-3.2384,-3.2358,-3.2363,-3.2342,-3.2336,-3.2334,-3.232,-3.2316,-3.2324,-3.233,-3.2337,-3.2378,-3.2374,-3.24,-3.2409,-3.2416,-3.2422,-3.2442,-3.2453,-3.2336,-3.2336,-3.2336,0,0,-3.24,-3.2387,-3.2397,-3.2398,-3.2392,-3.2406,-3.2357,-3.2374,-3.2384,-3.2336,-3.236,-3.235,-3.2343,-3.2377,-3.2391,-3.2371,-3.2453,-3.2423,-3.2429,-3.243,-3.2448,-3.2459,-3.2469,-3.234,-3.2339,-3.2339,0,0,-3.2475,-3.2467,-3.2494,-3.2489,-3.248,-3.2462,-3.2469,-3.2452,-3.2444,-3.2467,-3.2431,-3.2443,-3.2458,-3.2454,-3.2454,-3.2527,-3.25,-3.253,-3.2578,-3.2599,-3.2608,-3.2616,-3.2642,-3.2651,-3.2536,-3.2536,-3.2536,0,-3.2523,-3.2542,-3.2512,-3.253,-3.2532,-3.2489,-3.2516,-3.2512,-3.2506,-3.2508,-3.2485,-3.2503,-3.2495,-3.2527,-3.2545,-3.2547,-3.2553,-3.2532,-3.2609,-3.2617,-3.2624,-3.2648,-3.2658,-3.2539,-3.2539,-3.2539,-3.2538,0,-3.2602,-3.2615,-3.2638,-3.2633,-3.2636,-3.266,-3.2632,-3.264,-3.2619,-3.2603,-3.2627,-3.2616,-3.2619,-3.2625,-3.2605,-3.2654,-3.2642,-3.2615,-3.2575,-3.2639,-3.2661,-3.267,-3.2545,-3.2543,-3.2542,-3.2541,0,0,-3.2717,-3.2693,-3.2702,-3.2699,-3.2685,-3.2695,-3.2716,-3.2719,-3.2726,-3.2723,-3.2739,-3.2753,-3.2727,-3.2727,-3.2706,-3.2724,-3.2782,-3.2694,-3.2694,-3.2711,-3.2835,-3.2855,-3.2867,-3.2764,-3.2765,-3.2767,-3.2836,0,-3.2788,-3.2822,-3.2795,-3.2834,-3.2846,-3.2805,-3.2823,-3.2817,-3.2803,-3.2811,-3.2796,-3.2806,-3.2771,-3.2771,-3.2787,-3.2772,-3.2806,-3.2766,-3.2779,-3.2779,-3.2781,-3.2878,-3.29,-3.2965,-3.2844,-3.2845,-3.2846,0,-3.2876,-3.2876,-3.2917,-3.2899,-3.2903,-3.292,-3.292,-3.2928,-3.292,-3.2908,-3.2908,-3.2882,-3.2901,-3.2862,-3.2888,-3.2861,-3.2865,-3.2858,-3.286,-3.2859,-3.2817,-3.288,-3.2986,-3.2995,-3.286,-3.2859,-3.2858,0,-3.2956,-3.2966,-3.2991,-3.2989,-3.297,-3.2983,-3.2976,-3.2965,-3.2968,-3.2968,-3.297,-3.2972,-3.2973,-3.2976,-3.2951,-3.2925,-3.298,-3.2939,-3.297,-3.2971,-3.2984,-3.2983,-3.3091,-3.2987,-3.2987,-3.2986,-3.2986,0,-3.3038,-3.3064,-3.3026,-3.3042,-3.3069,-3.3038,-3.3066,-3.3054,-3.3046,-3.3058,-3.3023,-3.3035,-3.3002,-3.301,-3.2991,-3.3015,-3.3016,-3.3007,-3.3002,-3.301,-3.3011,-3.3012,-3.3006,-3.2989,-3.2988,-3.2988,-3.2987,0,-3.3132,-3.3108,-3.3132,-3.3111,-3.3107,-3.3128,-3.3111,-3.3124,-3.3107,-3.3124,-3.3125,-3.31,-3.3108,-3.3083,-3.3089,-3.3075,-3.311,-3.3097,-3.3113,-3.3109,-3.3141,-3.3139,-3.3253,-3.3266,-3.3154,-3.3155,-3.3156,0,-3.3186,-3.3205,-3.3186,-3.3191,-3.3186,-3.3195,-3.3198,-3.3167,-3.3171,-3.3163,-3.3177,-3.3183,-3.3185,-3.3201,-3.3183,-3.3186,-3.3173,-3.3213,-3.3174,-3.3181,-3.3173,-3.3172,-3.3174,-3.3221,-3.3223,-3.3224,-3.3225,0,-3.3284,-3.3271,-3.3276,-3.3276,-3.328,-3.3279,-3.3276,-3.3283,-3.325,-3.3256,-3.3264,-3.3266,-3.3271,-3.3276,-3.3276,-3.3268,-3.3241,-3.3237,-3.3244,-3.3253,-3.3261,-3.3257,-3.3134,-3.3235,-3.3234,-3.3233,-3.3232,-3.3232,-3.3359,-3.3374,-3.3363,-3.3369,-3.3363,-3.336,-3.3372,-3.3356,-3.3362,-3.3363,-3.3344,-3.3356,-3.3347,-3.3343,-3.3338,-3.3347,-3.3329,-3.334,-3.3342,-3.3345,-3.3351,-3.326,-3.3347,-3.3346,-3.3346,-3.3346,-3.3346,0,-3.3456,-3.3446,-3.3452,-3.3448,-3.3453,-3.3426,-3.3421,-3.3427,-3.3437,-3.3431,-3.3434,-3.3443,-3.3448,-3.343,-3.3433,-3.3443,-3.3431,-3.3445,-3.3444,-3.3442,-3.3367,-3.336,-3.3455,-3.3455,-3.3455,-3.3455,-3.3455,-3.3455,-3.3506,-3.3529,-3.3514,-3.3534,-3.3524,-3.3534,-3.3534,-3.3531,-3.3525,-3.3537,-3.3541,-3.3529,-3.3517,-3.3519,-3.3522,-3.3517,-3.3519,-3.3538,-3.3528,-3.3458,-3.3448,-3.3438,-3.3431,-3.3539,-3.3539,-3.3603,-3.3603,-3.3604]}]]